Location: Molino di Ancona
(43.6167°N, 13.3667°E)
Time: 10:14:32
(UTC+00:00)

CZ-4C R/B - Pass Details

Date: 15 December 2019
Orbit: 647 x 1355 km, 63.4° (Epoch: 19 January)

Event Time Altitude Azimuth Distance (km) Brightness Sun altitude
Exits shadow 03:04:54 24° 176° (S) 2,438 4.5 -36.6°
Drops below altitude 10° 03:07:54 10° 168° (SSE) 3,372 5.4 -36.0°
Sets 03:10:55 0° 164° (SSE) 4,364 6.1 -35.5°
